Location: Caltech
(34.1382°N, 118.1253°W)
Time: 02:23:43
(UTC-07:00)

Iridium 49 - Visible Passes

Search period start: 23 October 2014 00:00
Search period end: 02 November 2014 00:00
Orbit: 776 x 779 km, 86.4° (Epoch: 22 October)

Date Brightness Start Highest point End Pass type
(mag) Time Alt. Az. Time Alt. Az. Time Alt. Az.
23 Oct 9.1 05:13:28 10° NE 05:16:11 14° ENE 05:18:53 10° ESE visible
23 Oct 8.5 19:46:04 10° SW 19:50:06 23° W 19:54:09 10° NNW visible
24 Oct 6.2 06:18:30 10° N 06:23:44 80° E 06:28:55 10° S visible
24 Oct 7.3 19:11:29 10° SSW 19:16:25 43° W 19:21:22 10° NNW visible
25 Oct 7.5 05:45:15 10° NNE 05:50:09 40° E 05:55:01 10° SSE visible
25 Oct 6.1 18:37:39 10° S 18:42:51 85° W 18:48:04 10° N visible
26 Oct 8.6 05:12:32 10° NNE 05:16:27 21° E 05:20:20 10° SE visible
26 Oct 9.0 19:47:24 10° WSW 19:50:21 15° WNW 19:53:19 10° NW visible
27 Oct 9.3 04:41:35 10° ENE 04:42:37 11° ENE 04:43:39 10° E visible
27 Oct 6.0 06:18:37 10° N 06:23:48 69° W 06:28:57 10° S visible
27 Oct 8.1 19:12:07 10° SW 19:16:35 29° W 19:21:05 10° NNW visible
28 Oct 6.6 05:45:08 10° N 05:50:17 61° E 05:55:25 10° SSE visible
28 Oct 6.8 18:37:51 10° SSW 18:42:56 56° W 18:48:04 10° N visible
29 Oct 7.9 05:12:03 10° NNE 05:16:39 31° E 05:21:14 10° SE visible
30 Oct 8.8 04:39:41 10° NE 04:42:54 16° ENE 04:46:06 10° ESE visible
30 Oct 6.3 06:18:52 10° NNW 06:23:49 45° W 06:28:45 10° SSW visible
30 Oct 8.8 19:13:05 10° SW 19:16:48 20° W 19:20:32 10° NNW visible
31 Oct 6.0 05:45:09 10° N 05:50:22 89° W 05:55:34 10° S visible
31 Oct 7.7 18:38:17 10° SSW 18:43:05 37° W 18:47:54 10° NNW visible
01 Nov 7.0 05:11:48 10° NNE 05:16:49 46° E 05:21:48 10° SSE visible
